• In Netherlands
  • List of Countries
  • For 7 days
  • Water Temperature
  • Satellite Maps
  • Weather Map
  • Weather Widgets
  • user-avatar
    Login

    Hourly Weather Babruysk

    Today, 28 May, Sunday

    Time Temperature Precipitation Wind Pressure Humidity
    00:00 +13°C° 0 mm 2 mps 752 mmHg 77%
    01:00 +12°C° 0 mm 2 mps 752 mmHg 80%
    02:00 +12°C° 0 mm 2 mps 752 mmHg 81%
    03:00 +12°C° 0 mm 2 mps 752 mmHg 81%
    04:00 +12°C° 0 mm 2 mps 752 mmHg 82%
    05:00 +12°C° 0 mm 2 mps 752 mmHg 82%
    06:00 +13°C° 0 mm 3 mps 752 mmHg 75%
    07:00 +16°C° 0 mm 3 mps 752 mmHg 67%
    08:00 +18°C° 0 mm 4 mps 752 mmHg 59%
    09:00 +19°C° 0 mm 4 mps 752 mmHg 55%
    10:00 +21°C° 0 mm 5 mps 751 mmHg 51%
    11:00 +22°C° 0 mm 5 mps 751 mmHg 47%
    12:00 +23°C° 0 mm 4 mps 751 mmHg 46%
    13:00 +25°C° 0 mm 4 mps 751 mmHg 45%
    14:00 +26°C° 0 mm 4 mps 751 mmHg 45%
    15:00 +26°C° 0 mm 3 mps 751 mmHg 48%
    16:00 +25°C° 0 mm 3 mps 751 mmHg 51%
    17:00 +25°C° 0 mm 2 mps 751 mmHg 55%
    18:00 +23°C° 0 mm 2 mps 751 mmHg 64%
    19:00 +21°C° 0 mm 1 mps 751 mmHg 73%
    20:00 +19°C° 0 mm 1 mps 751 mmHg 82%
    21:00 +17°C° 0 mm 2 mps 751 mmHg 83%
    22:00 +17°C° 0 mm 2 mps 750 mmHg 84%
    23:00 +16°C° 0 mm 2 mps 750 mmHg 85%

    Tomorrow, 29 May, Monday

    Time Temperature Precipitation Wind Pressure Humidity
    00:00 +16°C° 0 mm 2 mps 750 mmHg 87%
    01:00 +16°C° 0 mm 2 mps 750 mmHg 89%
    02:00 +15°C° 0 mm 2 mps 750 mmHg 90%
    03:00 +14°C° 0 mm 3 mps 749 mmHg 89%
    04:00 +14°C° 0 mm 3 mps 749 mmHg 88%
    05:00 +14°C° 0 mm 3 mps 749 mmHg 87%
    06:00 +17°C° 0 mm 3 mps 748 mmHg 78%
    07:00 +19°C° 0 mm 4 mps 748 mmHg 70%
    08:00 +21°C° 0 mm 4 mps 748 mmHg 61%
    09:00 +22°C° 0 mm 5 mps 747 mmHg 55%
    10:00 +24°C° 0 mm 6 mps 747 mmHg 49%
    11:00 +26°C° 0 mm 7 mps 746 mmHg 43%
    12:00 +26°C° 0 mm 7 mps 746 mmHg 42%
    13:00 +27°C° 0 mm 6 mps 745 mmHg 40%
    14:00 +27°C° 0 mm 6 mps 745 mmHg 38%
    15:00 +27°C° 0 mm 5 mps 744 mmHg 44%
    16:00 +26°C° 0 mm 4 mps 744 mmHg 49%
    17:00 +25°C° 0 mm 4 mps 743 mmHg 54%
    18:00 +22°C° 0.2 mm 3 mps 743 mmHg 64%
    19:00 +21°C° 0.2 mm 3 mps 743 mmHg 74%
    20:00 +19°C° 0.2 mm 2 mps 743 mmHg 84%
    21:00 +18°C° 0.4 mm 2 mps 743 mmHg 88%
    22:00 +17°C° 0.4 mm 2 mps 743 mmHg 92%
    23:00 +16°C° 0.4 mm 2 mps 743 mmHg 95%

    Day after tomorrow, 30 May, Tuesday

    Time Temperature Precipitation Wind Pressure Humidity
    00:00 +16°C° 0 mm 2 mps 743 mmHg 96%
    01:00 +15°C° 0 mm 2 mps 743 mmHg 97%
    02:00 +15°C° 0 mm 2 mps 743 mmHg 97%
    03:00 +15°C° 0 mm 2 mps 743 mmHg 97%
    04:00 +14°C° 0 mm 2 mps 743 mmHg 97%
    05:00 +14°C° 0 mm 2 mps 744 mmHg 97%
    06:00 +16°C° 0 mm 2 mps 744 mmHg 93%
    07:00 +17°C° 0 mm 2 mps 744 mmHg 89%
    08:00 +18°C° 0 mm 2 mps 744 mmHg 84%
    09:00 +19°C° 0.1 mm 2 mps 745 mmHg 78%
    10:00 +20°C° 0.1 mm 3 mps 745 mmHg 72%
    11:00 +21°C° 0.1 mm 3 mps 745 mmHg 65%
    12:00 +22°C° 0.1 mm 3 mps 745 mmHg 62%
    13:00 +24°C° 0.1 mm 3 mps 745 mmHg 58%
    14:00 +24°C° 0.1 mm 3 mps 745 mmHg 54%
    15:00 +24°C° 0 mm 3 mps 745 mmHg 54%
    16:00 +24°C° 0 mm 3 mps 745 mmHg 54%
    17:00 +24°C° 0 mm 2 mps 745 mmHg 54%
    18:00 +21°C° 0 mm 2 mps 745 mmHg 62%
    19:00 +19°C° 0 mm 2 mps 746 mmHg 70%
    20:00 +17°C° 0 mm 2 mps 746 mmHg 78%
    21:00 +16°C° 0 mm 2 mps 746 mmHg 81%
    22:00 +15°C° 0 mm 2 mps 746 mmHg 83%
    23:00 +14°C° 0 mm 2 mps 746 mmHg 85%

    31 May, Wednesday

    Time Temperature Precipitation Wind Pressure Humidity
    00:00 +14°C° 0 mm 2 mps 746 mmHg 87%
    01:00 +13°C° 0 mm 2 mps 746 mmHg 90%
    02:00 +13°C° 0 mm 2 mps 746 mmHg 92%
    03:00 +13°C° 0 mm 2 mps 745 mmHg 92%
    04:00 +13°C° 0 mm 2 mps 745 mmHg 93%
    05:00 +14°C° 0 mm 2 mps 745 mmHg 93%
    06:00 +16°C° 0 mm 2 mps 745 mmHg 86%
    07:00 +18°C° 0 mm 3 mps 744 mmHg 79%
    08:00 +20°C° 0 mm 3 mps 744 mmHg 71%
    09:00 +22°C° 0 mm 3 mps 744 mmHg 66%
    10:00 +24°C° 0 mm 3 mps 743 mmHg 61%
    11:00 +25°C° 0 mm 4 mps 743 mmHg 56%
    12:00 +25°C° 0.3 mm 4 mps 742 mmHg 58%
    13:00 +26°C° 0.3 mm 4 mps 742 mmHg 61%
    14:00 +26°C° 0.3 mm 5 mps 742 mmHg 64%
    15:00 +25°C° 0.4 mm 4 mps 741 mmHg 68%
    16:00 +25°C° 0.4 mm 4 mps 741 mmHg 72%
    17:00 +23°C° 0.4 mm 4 mps 741 mmHg 76%
    18:00 +21°C° 0.2 mm 4 mps 741 mmHg 79%
    19:00 +20°C° 0.2 mm 4 mps 741 mmHg 83%
    20:00 +18°C° 0.2 mm 3 mps 741 mmHg 86%
    21:00 +17°C° 0 mm 3 mps 741 mmHg 87%
    22:00 +14°C° 0 mm 3 mps 742 mmHg 87%
    23:00 +14°C° 0 mm 2 mps 742 mmHg 88%

    1 June, Thursday

    Time Temperature Precipitation Wind Pressure Humidity
    00:00 +13°C° 0 mm 2 mps 742 mmHg 88%
    01:00 +12°C° 0 mm 2 mps 742 mmHg 87%
    02:00 +11°C° 0 mm 3 mps 742 mmHg 86%
    03:00 +11°C° 0 mm 3 mps 742 mmHg 86%
    04:00 +11°C° 0 mm 3 mps 742 mmHg 86%
    05:00 +10°C° 0 mm 3 mps 742 mmHg 85%
    06:00 +12°C° 0 mm 4 mps 742 mmHg 79%
    07:00 +13°C° 0 mm 5 mps 742 mmHg 72%
    08:00 +14°C° 0 mm 5 mps 742 mmHg 66%
    09:00 +14°C° 0.1 mm 5 mps 742 mmHg 67%
    10:00 +14°C° 0.1 mm 5 mps 743 mmHg 69%
    11:00 +14°C° 0.1 mm 5 mps 743 mmHg 70%
    12:00 +15°C° 0.1 mm 5 mps 743 mmHg 65%
    13:00 +16°C° 0.1 mm 5 mps 743 mmHg 60%
    14:00 +16°C° 0.1 mm 5 mps 743 mmHg 56%
    15:00 +16°C° 0.1 mm 5 mps 744 mmHg 54%
    16:00 +16°C° 0.1 mm 5 mps 744 mmHg 53%
    17:00 +18°C° 0.1 mm 4 mps 744 mmHg 52%
    18:00 +15°C° 0 mm 4 mps 744 mmHg 58%
    19:00 +14°C° 0 mm 3 mps 744 mmHg 64%
    20:00 +13°C° 0 mm 3 mps 744 mmHg 70%
    21:00 +12°C° 0 mm 3 mps 745 mmHg 71%
    22:00 +12°C° 0 mm 3 mps 745 mmHg 71%
    23:00 +11°C° 0 mm 3 mps 745 mmHg 72%

    2 June, Friday

    Time Temperature Precipitation Wind Pressure Humidity
    00:00 +10°C° 0 mm 3 mps 746 mmHg 73%
    01:00 +9°C° 0 mm 2 mps 746 mmHg 75%
    02:00 +8°C° 0 mm 2 mps 746 mmHg 76%
    03:00 +8°C° 0 mm 2 mps 746 mmHg 77%
    04:00 +7°C° 0 mm 2 mps 746 mmHg 79%
    05:00 +8°C° 0 mm 1 mps 746 mmHg 80%
    06:00 +9°C° 0 mm 2 mps 746 mmHg 70%
    07:00 +12°C° 0 mm 2 mps 746 mmHg 60%
    08:00 +13°C° 0 mm 2 mps 746 mmHg 49%
    09:00 +14°C° 0 mm 3 mps 746 mmHg 45%
    10:00 +15°C° 0 mm 4 mps 746 mmHg 40%
    11:00 +16°C° 0 mm 5 mps 745 mmHg 36%
    12:00 +17°C° 0 mm 5 mps 745 mmHg 36%
    13:00 +17°C° 0 mm 5 mps 745 mmHg 36%
    14:00 +19°C° 0 mm 6 mps 745 mmHg 37%
    15:00 +17°C° 0.1 mm 5 mps 745 mmHg 47%
    16:00 +15°C° 0.1 mm 5 mps 745 mmHg 57%
    17:00 +14°C° 0.1 mm 4 mps 745 mmHg 67%
    18:00 +13°C° 0.1 mm 4 mps 745 mmHg 71%
    19:00 +12°C° 0.1 mm 3 mps 745 mmHg 74%
    20:00 +11°C° 0.1 mm 3 mps 745 mmHg 78%
    21:00 +10°C° 0 mm 3 mps 746 mmHg 83%
    22:00 +9°C° 0 mm 2 mps 746 mmHg 88%
    23:00 +8°C° 0 mm 2 mps 746 mmHg 92%
    Show more